Weather History for KGNA - December, 2012

Change the Weather History Date:

Wednesday, December 26, 2012

  Actual Average (KCKC) Record (KCKC)
Temperature  
Mean Temperature 13 °F -  
Max Temperature 23 °F 15 °F 51 °F (2010)
Min Temperature 3 °F 1 °F -20 °F (1996)
Degree Days  
Heating Degree Days 52    
Moisture  
Dew Point 8 °F    
Average Humidity 69    
Maximum Humidity 74    
Minimum Humidity 63    
Precipitation  
Precipitation 0.00 in - - ()
Sea Level Pressure  
Sea Level Pressure 30.39 in    
Wind  
Wind Speed 3 mph (North)    
Max Wind Speed 7 mph    
Max Gust Speed -    
Averages and records for this station are not official NWS values.
T = Trace of Precipitation, MM = Missing Value Source: NWS Daily Summary

Daily Weather History Graph

Daily Weather History Graph

Search for Another Location

Airport or City:

Trip Planner

Search our weather history database for the weather conditions in past years. The results will help you decide how hot, cold, wet, or windy it might be!

Date:

Astronomy

Dec. 26, 2012 Rise Set
Actual Time 7:49 AM CST 4:15 PM CST
Civil Twilight 7:13 AM CST 4:51 PM CST
Nautical Twilight 6:33 AM CST 5:30 PM CST
Astronomical Twilight 5:56 AM CST 6:08 PM CST
Moon 3:10 PM CST (12/26) 6:10 AM CST (12/26)
Length of Visible Light 9h 37m
Length of Day
8h 25m
Waxing Gibbous, 97% of the Moon is Illuminated
Dec 26
Waxing Gibbous
Dec 28
Full
Jan 4
Last Quarter
Jan 11
New
Jan 18
First Quarter

Hourly Weather History & Observations

Time (CST) Temp. Windchill Dew Point Humidity Pressure Visibility Wind Dir Wind Speed Gust Speed Precip Events Conditions
12:56 AM 6.1 °F - -4.0 °F 63% 30.44 in - Calm Calm - N/A   Unknown
1:56 AM 3.9 °F -5.3 °F -6.0 °F 64% 30.45 in - Variable 4.6 mph - N/A   Unknown
2:56 AM 3.9 °F -3.4 °F -5.1 °F 66% 30.45 in - NNW 3.5 mph - N/A   Unknown
3:56 AM 5.0 °F -6.9 °F -2.9 °F 70% 30.44 in - NNW 6.9 mph - N/A   Unknown
5:56 AM 10.0 °F 1.8 °F 1.9 °F 70% 30.44 in - NNW 4.6 mph - N/A   Unknown
6:56 AM 12.0 °F - 3.9 °F 70% 30.44 in - Calm Calm - N/A   Unknown
7:56 AM 14.0 °F - 6.1 °F 71% 30.44 in - Calm Calm - N/A   Unknown
8:56 AM 15.1 °F 9.4 °F 8.1 °F 74% 30.43 in - North 3.5 mph - N/A   Unknown
9:56 AM 17.1 °F - 9.0 °F 71% 30.43 in - Calm Calm - N/A   Unknown
10:56 AM 18.0 °F 12.7 °F 9.0 °F 68% 30.41 in - NE 3.5 mph - N/A   Unknown
11:56 AM 19.0 °F 10.0 °F 10.9 °F 71% 30.39 in - ENE 6.9 mph - N/A   Unknown
12:56 PM 19.9 °F - 10.9 °F 68% 30.38 in - Calm Calm - N/A   Unknown
1:56 PM 21.9 °F - 12.0 °F 66% 30.37 in - Calm Calm - N/A   Unknown
2:56 PM 21.9 °F - 14.0 °F 72% 30.37 in - Calm Calm - N/A   Unknown
3:56 PM 23.0 °F 15.8 °F 15.1 °F 72% 30.37 in - ENE 5.8 mph - N/A   Unknown
4:56 PM 21.9 °F 17.2 °F 14.0 °F 72% 30.37 in - NNE 3.5 mph - N/A   Unknown
5:56 PM 21.9 °F - 14.0 °F 72% 30.36 in - Calm Calm - N/A   Unknown
6:56 PM 21.0 °F 12.4 °F 12.0 °F 68% 30.35 in - North 6.9 mph - N/A   Unknown
7:56 PM 21.0 °F 12.4 °F 10.9 °F 65% 30.35 in - NNW 6.9 mph - N/A   Unknown
8:56 PM 21.0 °F 16.2 °F 10.9 °F 65% 30.35 in - NNE 3.5 mph - N/A   Unknown
9:56 PM 19.0 °F - 10.0 °F 68% 30.35 in - Calm Calm - N/A   Unknown
10:56 PM 19.0 °F 13.9 °F 10.9 °F 71% 30.35 in - North 3.5 mph - N/A   Unknown
11:56 PM 18.0 °F 11.1 °F 9.0 °F 68% 30.33 in - NNW 4.6 mph - N/A   Unknown